This is the latest recevied weather packets stored in our database for station/object AD0YN. If no packets are shown the sender has not sent any weather packets the latest 10 day(s).
| Time | Temp. | Humidity | Pressure | Rain* | Wind** | Luminosity | Snow |
|---|---|---|---|---|---|---|---|
| 1777998785 | 10° C | 82% | 1012.5 hPa | 0 mm | - | 108 W/m² | - |
| 1777998483 | 10° C | 82% | 1012.8 hPa | 0 mm | - | 125 W/m² | - |
| 1777998178 | 10° C | 83% | 1012.6 hPa | 0 mm | - | 144 W/m² | - |
| 1777997876 | 10° C | 83% | 1012.7 hPa | 0 mm | - | 136 W/m² | - |
| 1777997573 | 10° C | 80% | 1012.4 hPa | 0 mm | - | 147 W/m² | - |
| 1777997270 | 10° C | 85% | 1012.6 hPa | 0 mm | - | 126 W/m² | - |
| 1777996968 | 10° C | 85% | 1012.5 hPa | 0 mm | - | 106 W/m² | - |
| 1777996664 | 10° C | 87% | 1012.6 hPa | 0 mm | - | 105 W/m² | - |
| 1777996360 | 10° C | 86% | 1012.6 hPa | 0 mm | - | 114 W/m² | - |
| 1777996057 | 10° C | 86% | 1012.2 hPa | 0 mm | - | 111 W/m² | - |
| 1777995753 | 9.44° C | 85% | 1012.1 hPa | 0 mm | - | 112 W/m² | - |
| 1777995450 | 9.44° C | 86% | 1012.1 hPa | 0 mm | - | 99 W/m² | - |
| 1777995147 | 9.44° C | 84% | 1012.1 hPa | 0 mm | - | 96 W/m² | - |
| 1777994844 | 10° C | 86% | 1011.7 hPa | 1.27 mm | - | 95 W/m² | - |
| 1777994540 | 9.44° C | 83% | 1011.7 hPa | 1.27 mm | - | 80 W/m² | - |
| 1777994235 | 9.44° C | 79% | 1011.7 hPa | 1.78 mm | - | 89 W/m² | - |
| 1777993933 | 9.44° C | 80% | 1011.6 hPa | 1.78 mm | - | 111 W/m² | - |
| 1777993629 | 10° C | 81% | 1011.4 hPa | 3.05 mm | - | 128 W/m² | - |
| 1777993326 | 10° C | 80% | 1011.6 hPa | 1.27 mm | - | 105 W/m² | - |
| 1777993026 | 10° C | 77% | 1011.5 hPa | 1.78 mm | - | 86 W/m² | - |
| 1777992725 | 10° C | 79% | 1011.6 hPa | 1.78 mm | - | 69 W/m² | - |
| 1777992422 | 9.44° C | 78% | 1011.6 hPa | 0 mm | - | 66 W/m² | - |
| 1777992120 | 9.44° C | 80% | 1011.4 hPa | 0 mm | - | 61 W/m² | - |
| 1777991817 | 9.44° C | 83% | 1011.5 hPa | 0 mm | - | 60 W/m² | - |
| 1777991514 | 8.89° C | 85% | 1011.5 hPa | 0 mm | - | 59 W/m² | - |
* Rain latest hour (hover to see other rain measurements)
** Current wind speed in m/s (hover to see current wind gust speed)